Weather History for Jesup, GA

Change the Weather History Date:

Wednesday, April 3, 2013

  Actual Average (KLHW) Record (KLHW)
Temperature  
Mean Temperature 58 °F -  
Max Temperature 73 °F 77 °F 90 °F (1967)
Min Temperature 44 °F 50 °F 37 °F (1993)
Degree Days  
Heating Degree Days 6    
Growing Degree Days 8 (Base 50)    
Moisture  
Dew Point 55 °F    
Average Humidity 84    
Maximum Humidity 100    
Minimum Humidity 60    
Precipitation  
Precipitation 0.00 in - - ()
Sea Level Pressure  
Sea Level Pressure 30.11 in    
Wind  
Wind Speed 4 mph (East)    
Max Wind Speed 15 mph    
Max Gust Speed 21 mph    
Visibility 10 miles    
Events Rain    
Averages and records for this station are not official NWS values.
T = Trace of Precipitation, MM = Missing Value Source: NWS Daily Summary

Daily Weather History Graph

Daily Weather History Graph

Search for Another Location

Airport:

Trip Planner

Search our weather history database for the weather conditions in past years. The results will help you decide how hot, cold, wet, or windy it might be!

Date:

Astronomy

Apr. 03, 2013 Rise Set
Actual Time 7:13 AM EDT 7:48 PM EDT
Civil Twilight 6:48 AM EDT 8:13 PM EDT
Nautical Twilight 6:20 AM EDT 8:41 PM EDT
Astronomical Twilight 5:50 AM EDT 9:11 PM EDT
Moon 2:29 AM EDT (4/3) 1:22 PM EDT (4/3)
Length of Visible Light 13h 24m
Length of Day
12h 35m
Last Quarter, 45% of the Moon is Illuminated
Apr 3
Last Quarter
Apr 10
New
Apr 18
First Quarter
Apr 25
Full
May 2
Last Quarter

Hourly Weather History & Observations

Time (EDT) Temp. Windchill Dew Point Humidity Pressure Visibility Wind Dir Wind Speed Gust Speed Precip Events Conditions
12:35 AM 51.8 °F - 50.0 °F 94% 30.11 in 10.0 mi Calm Calm - N/A   Clear
12:55 AM 51.8 °F - 50.0 °F 94% 30.10 in 10.0 mi Calm Calm - N/A   Clear
1:35 AM 48.2 °F - 48.2 °F 100% 30.10 in 10.0 mi Calm Calm - N/A   Clear
1:55 AM 48.2 °F - 48.2 °F 100% 30.10 in 10.0 mi Calm Calm - N/A   Clear
2:15 AM 48.2 °F - 46.4 °F 93% 30.09 in 10.0 mi Calm Calm - N/A   Clear
3:15 AM 46.4 °F - 46.4 °F 100% 30.08 in 10.0 mi Calm Calm - N/A   Clear
3:35 AM 46.4 °F - 46.4 °F 100% 30.07 in 10.0 mi Calm Calm - N/A   Clear
4:55 AM 46.4 °F - 46.4 °F 100% 30.05 in 10.0 mi Calm Calm - N/A   Clear
5:15 AM 46.4 °F - 46.4 °F 100% 30.06 in 10.0 mi Calm Calm - N/A   Clear
5:35 AM 44.6 °F - 44.6 °F 100% 30.08 in 10.0 mi Calm Calm - N/A   Clear
5:55 AM 46.4 °F 44.3 °F 46.4 °F 100% 30.08 in 10.0 mi NNE 4.6 mph - N/A   Clear
6:15 AM 46.4 °F - 46.4 °F 100% 30.09 in 10.0 mi Calm Calm - N/A   Clear
6:35 AM 48.2 °F - 48.2 °F 100% 30.10 in 10.0 mi Calm Calm - N/A   Mostly Cloudy
6:55 AM 46.4 °F - 46.4 °F 100% 30.10 in 10.0 mi Calm Calm - N/A   Scattered Clouds
7:15 AM 50.0 °F - 50.0 °F 100% 30.11 in 10.0 mi Calm Calm - N/A   Clear
7:35 AM 50.0 °F - 50.0 °F 100% 30.11 in 10.0 mi Calm Calm - N/A   Clear
7:55 AM 51.8 °F - 51.8 °F 100% 30.13 in 10.0 mi NE 3.5 mph - N/A   Clear
8:15 AM 53.6 °F - 51.8 °F 94% 30.13 in 7.0 mi ENE 3.5 mph - N/A   Clear
8:35 AM 53.6 °F - 53.6 °F 100% 30.13 in 10.0 mi ENE 3.5 mph - N/A   Clear
8:55 AM 55.4 °F - 53.6 °F 94% 30.13 in 10.0 mi East 3.5 mph - N/A   Clear
9:15 AM 57.2 °F - 53.6 °F 88% 30.13 in 7.0 mi East 4.6 mph - N/A   Mostly Cloudy
9:35 AM 59.0 °F - 55.4 °F 88% 30.13 in 10.0 mi East 4.6 mph - N/A   Mostly Cloudy
9:55 AM 60.8 °F - 55.4 °F 82% 30.13 in 10.0 mi East 3.5 mph - N/A   Mostly Cloudy
10:15 AM 64.4 °F - 55.4 °F 73% 30.13 in 10.0 mi ENE 3.5 mph - N/A   Scattered Clouds
10:35 AM 64.4 °F - 55.4 °F 73% 30.13 in 10.0 mi ENE 5.8 mph - N/A   Scattered Clouds
10:55 AM 68.0 °F - 53.6 °F 60% 30.13 in 10.0 mi East 5.8 mph - N/A   Clear
11:15 AM 68.0 °F - 53.6 °F 60% 30.14 in 10.0 mi ENE 3.5 mph - N/A   Clear
11:35 AM 69.8 °F - 55.4 °F 60% 30.14 in 10.0 mi NE 4.6 mph - N/A   Scattered Clouds
11:55 AM 69.8 °F - 57.2 °F 64% 30.12 in 10.0 mi ENE 4.6 mph - N/A   Clear
12:15 PM 71.6 °F - 57.2 °F 60% 30.12 in 10.0 mi ESE 5.8 mph - N/A   Clear
12:35 PM 71.6 °F - 57.2 °F 60% 30.11 in 10.0 mi ESE 4.6 mph - N/A   Clear
12:55 PM 71.6 °F - 59.0 °F 64% 30.11 in 10.0 mi Calm Calm - N/A   Clear
1:15 PM 71.6 °F - 59.0 °F 64% 30.11 in 10.0 mi ESE 4.6 mph - N/A   Scattered Clouds
1:35 PM 71.6 °F - 59.0 °F 64% 30.10 in 10.0 mi East 5.8 mph - N/A   Mostly Cloudy
1:55 PM 73.4 °F - 60.8 °F 65% 30.10 in 10.0 mi East 4.6 mph - N/A   Scattered Clouds
2:15 PM 73.4 °F - 60.8 °F 65% 30.10 in 10.0 mi East 5.8 mph - N/A   Scattered Clouds
2:35 PM 73.4 °F - 60.8 °F 65% 30.10 in 10.0 mi ESE 4.6 mph - N/A   Mostly Cloudy
2:55 PM 73.4 °F - 60.8 °F 65% 30.10 in 10.0 mi East 5.8 mph - N/A   Overcast
3:15 PM 73.4 °F - 59.0 °F 61% 30.09 in 10.0 mi East 6.9 mph 10.4 mph N/A   Mostly Cloudy
3:35 PM 73.4 °F - 60.8 °F 65% 30.09 in 10.0 mi ESE 9.2 mph - N/A   Mostly Cloudy
3:55 PM 73.4 °F - 60.8 °F 65% 30.08 in 10.0 mi ESE 11.5 mph - N/A   Scattered Clouds
4:15 PM 71.6 °F - 60.8 °F 69% 30.08 in 10.0 mi SE 9.2 mph - N/A   Scattered Clouds
4:35 PM 71.6 °F - 60.8 °F 69% 30.09 in 10.0 mi SE 5.8 mph - N/A   Scattered Clouds
4:55 PM 71.6 °F - 60.8 °F 69% 30.08 in 10.0 mi SE 9.2 mph - N/A   Mostly Cloudy
5:15 PM 69.8 °F - 59.0 °F 68% 30.08 in 10.0 mi SE 11.5 mph 16.1 mph N/A   Scattered Clouds
5:35 PM 68.0 °F - 57.2 °F 68% 30.09 in 10.0 mi ESE 11.5 mph - N/A   Scattered Clouds
5:55 PM 66.2 °F - 55.4 °F 68% 30.11 in 10.0 mi ESE 8.1 mph - N/A   Mostly Cloudy
6:15 PM 64.4 °F - 55.4 °F 73% 30.12 in 10.0 mi East 9.2 mph - N/A   Overcast
6:35 PM 64.4 °F - 55.4 °F 73% 30.13 in 10.0 mi East 9.2 mph - N/A   Overcast
6:55 PM 62.6 °F - 57.2 °F 82% 30.14 in 10.0 mi East 5.8 mph - N/A   Light Drizzle
7:15 PM 60.8 °F - 57.2 °F 88% 30.14 in 10.0 mi East 8.1 mph - N/A Rain Light Rain
7:35 PM 60.8 °F - 57.2 °F 88% 30.13 in 10.0 mi East 10.4 mph - N/A Rain Light Rain
7:55 PM 59.0 °F - 57.2 °F 94% 30.13 in 10.0 mi East 12.7 mph 20.7 mph N/A Rain Light Rain
8:15 PM 59.0 °F - 57.2 °F 94% 30.14 in 10.0 mi ESE 10.4 mph - N/A   Light Drizzle
8:35 PM 59.0 °F - 57.2 °F 94% 30.14 in 10.0 mi ESE 10.4 mph 16.1 mph N/A   Drizzle
8:55 PM 57.2 °F - 57.2 °F 100% 30.13 in 7.0 mi East 11.5 mph - N/A Rain Light Rain
9:15 PM 57.2 °F - 57.2 °F 100% 30.15 in 7.0 mi East 8.1 mph 17.3 mph N/A Rain Light Rain
9:35 PM 57.2 °F - 57.2 °F 100% 30.13 in 7.0 mi East 11.5 mph - N/A Rain Light Rain
9:55 PM 55.4 °F - 55.4 °F 100% 30.10 in 10.0 mi East 15.0 mph 19.6 mph N/A Rain Light Rain
10:15 PM 55.4 °F - 55.4 °F 100% 30.11 in 10.0 mi East 13.8 mph 18.4 mph N/A   Overcast
10:35 PM 55.4 °F - 55.4 °F 100% 30.12 in 10.0 mi East 12.7 mph 18.4 mph N/A   Overcast
10:55 PM 55.4 °F - 55.4 °F 100% 30.14 in 10.0 mi East 13.8 mph - N/A   Overcast
11:15 PM 55.4 °F - 55.4 °F 100% 30.15 in 10.0 mi East 9.2 mph - N/A   Overcast
11:35 PM 55.4 °F - 55.4 °F 100% 30.14 in 10.0 mi East 9.2 mph - N/A   Overcast
11:55 PM 55.4 °F - 55.4 °F 100% 30.13 in 10.0 mi ENE 9.2 mph - N/A   Overcast